Simultaneous Nadir Overpasses (SNOs) Predictions

Prediction of SNOs between AQUA and GOES-15 Satellite Orbit:

Table of predicted SNOs for the next 14.0 days since TLE Epoch: 6/13/2014
Index Date Time (AQUA) AQUA Lat,Lon GOES-15 Lat,Lon Distance(km) Time Diff (sec)
1 06/15/2014 10:32:26 -0.31,-134.19 -0.04,-135.41 139.38 80
2 06/15/2014 22:53:50 -0.79,-139.38 0.06,-135.41 451.74 80
3 06/17/2014 10:20:13 -0.93,-131.23 -0.04,-135.42 477.16 80
4 06/17/2014 22:41:37 -0.18,-136.42 0.05,-135.42 114.03 80
5 06/19/2014 22:29:24 0.46,-133.46 0.05,-135.42 223.45 80
6 06/20/2014 10:50:39 0.63,-138.61 -0.06,-135.43 362.02 80
7 06/22/2014 10:38:26 -0.03,-135.66 -0.06,-135.43 25.05 80
8 06/24/2014 10:26:12 -0.64,-132.69 -0.07,-135.43 311.52 80
9 06/24/2014 22:47:36 -0.44,-137.88 0.08,-135.42 279.98 80
10 06/26/2014 22:35:22 0.19,-134.92 0.08,-135.41 56.11 80




NCC Satellite Simultaneous Nadir Overpasses (SNOs) Prediction Service
